Precipitable_Water
0.06 0.06 0.05 0.05 0.05 0.05 0.05 0.05 0.05 0.05 0.05 0.05 0.05 0.05 0.05 0.05 0.06 0.06 0.06 0.06 0.06 0.06 0.06 0.06 0.06 0.06 0.06 0.06 0.06 0.06 0.06 0.07 0.07 0.06 0.06 0.06 0.06 0.06 0.06 0.06 0.05 0.05 0.04 0.05 0.05 0.05 0.05 0.05 0.05 0.05 0.05 0.05 0.05 0.05 0.05 0.06 0.06 0.06 0.06 0.06 0.06 0.06 0.06
0.06 0.06 0.05 0.05 0.05 0.05 0.05 0.05 0.05 0.05 0.05 0.05 0.05 0.05 0.05 0.05 0.06 0.06 0.06 0.06 0.06 0.06 0.06 0.06 0.06 0.06 0.06 0.06 0.06 0.06 0.06 0.07 0.06 0.06 0.06 0.06 0.06 0.06 0.06 0.06 0.06 0.05 0.05 0.04 0.05 0.05 0.05 0.05 0.05 0.05 0.05 0.05 0.05 0.05 0.05 0.05 0.05 0.06 0.06 0.05 0.05 0.05 0.06
0.06 0.06 0.05 0.05 0.05 0.05 0.05 0.05 0.05 0.05 0.05 0.05 0.05 0.05 0.05 0.06 0.06 0.06 0.06 0.06 0.06 0.06 0.06 0.06 0.06 0.06 0.06 0.07 0.06 0.06 0.07 0.07 0.07 0.07 0.06 0.06 0.06 0.06 0.06 0.06 0.06 0.06 0.05 0.05 0.04 0.05 0.05 0.05 0.05 0.05 0.05 0.05 0.05 0.05 0.05 0.05 0.05 0.05 0.05 0.05 0.05 0.06 0.06
0.06 0.06 0.05 0.05 0.05 0.05 0.05 0.05 0.05 0.05 0.05 0.05 0.05 0.05 0.05 0.06 0.06 0.06 0.06 0.06 0.06 0.06 0.06 0.06 0.06 0.06 0.06 0.07 0.07 0.07 0.07 0.07 0.07 0.07 0.07 0.06 0.06 0.06 0.06 0.06 0.06 0.06 0.05 0.05 0.04 0.05 0.05 0.05 0.05 0.05 0.05 0.05 0.05 0.05 0.05 0.05 0.05 0.05 0.05 0.05 0.05 0.05 0.05
0.06 0.06 0.06 0.05 0.05 0.05 0.05 0.05 0.05 0.05 0.05 0.05 0.05 0.05 0.06 0.06 0.06 0.06 0.06 0.06 0.06 0.06 0.06 0.06 0.06 0.06 0.07 0.07 0.07 0.07 0.07 0.07 0.07 0.07 0.07 0.07 0.07 0.06 0.06 0.06 0.06 0.06 0.06 0.05 0.05 0.05 0.05 0.05 0.05 0.05 0.05 0.05 0.05 0.05 0.05 0.05 0.05 0.05 0.05 0.05 0.05 0.05 0.06
0.06 0.06 0.06 0.05 0.05 0.05 0.05 0.05 0.05 0.05 0.05 0.05 0.05 0.06 0.06 0.06 0.06 0.06 0.06 0.06 0.06 0.06 0.06 0.06 0.06 0.07 0.07 0.07 0.07 0.07 0.07 0.07 0.07 0.07 0.07 0.07 0.06 0.06 0.06 0.06 0.06 0.06 0.06 0.05 0.05 0.05 0.05 0.05 0.05 0.05 0.05 0.05 0.05 0.05 0.04 0.04 0.05 0.05 0.05 0.05 0.05 0.05 0.06
0.06 0.06 0.06 0.06 0.05 0.05 0.05 0.05 0.05 0.05 0.05 0.05 0.05 0.06 0.06 0.06 0.06 0.06 0.06 0.06 0.06 0.06 0.07 0.07 0.07 0.07 0.07 0.07 0.07 0.07 0.07 0.07 0.07 0.07 0.07 0.07 0.06 0.06 0.06 0.06 0.06 0.06 0.06 0.05 0.05 0.05 0.05 0.05 0.05 0.05 0.04 0.05 0.05 0.05 0.05 0.04 0.04 0.04 0.05 0.05 0.05 0.05 0.06
0.06 0.06 0.06 0.06 0.05 0.05 0.05 0.05 0.05 0.06 0.06 0.06 0.06 0.06 0.06 0.06 0.05 0.06 0.06 0.06 0.06 0.07 0.07 0.07 0.07 0.07 0.07 0.08 0.08 0.08 0.08 0.07 0.07 0.07 0.07 0.07 0.07 0.06 0.06 0.06 0.06 0.06 0.05 0.05 0.05 0.05 0.04 0.05 0.05 0.05 0.05 0.05 0.05 0.05 0.05 0.05 0.05 0.04 0.04 0.05 0.05 0.05 0.05
0.06 0.06 0.06 0.06 0.06 0.05 0.05 0.05 0.06 0.06 0.06 0.06 0.06 0.06 0.05 0.05 0.06 0.06 0.06 0.07 0.07 0.07 0.07 0.07 0.08 0.08 0.08 0.08 0.08 0.08 0.08 0.08 0.07 0.07 0.07 0.07 0.07 0.06 0.06 0.06 0.06 0.05 0.05 0.05 0.05 0.04 0.05 0.05 0.05 0.05 0.04 0.04 0.05 0.05 0.05 0.05 0.05 0.05 0.05 0.05 0.05 0.05 0.05
0.07 0.06 0.06 0.06 0.05 0.05 0.05 0.06 0.06 0.06 0.06 0.06 0.07 0.07 0.07 0.07 0.07 0.07 0.07 0.07 0.07 0.07 0.08 0.08 0.08 0.08 0.08 0.08 0.08 0.08 0.08 0.08 0.08 0.08 0.08 0.07 0.07 0.06 0.06 0.06 0.05 0.05 0.05 0.05 0.04 0.04 0.04 0.04 0.04 0.05 0.05 0.05 0.05 0.05 0.05 0.05 0.05 0.05 0.05 0.05 0.05 0.05 0.05
0.06 0.06 0.06 0.06 0.05 0.05 0.05 0.06 0.06 0.06 0.07 0.07 0.08 0.08 0.08 0.08 0.08 0.08 0.08 0.08 0.08 0.07 0.08 0.08 0.08 0.09 0.09 0.09 0.08 0.08 0.08 0.08 0.08 0.08 0.08 0.08 0.08 0.07 0.07 0.06 0.06 0.05 0.05 0.05 0.05 0.05 0.05 0.05 0.05 0.05 0.05 0.05 0.05 0.05 0.05 0.05 0.05 0.05 0.05 0.05 0.05 0.04 0.05
0.06 0.06 0.06 0.06 0.06 0.05 0.05 0.06 0.06 0.06 0.07 0.08 0.08 0.08 0.08 0.08 0.08 0.08 0.08 0.08 0.08 0.08 0.08 0.08 0.08 0.08 0.08 0.08 0.08 0.08 0.08 0.08 0.08 0.07 0.07 0.07 0.07 0.07 0.07 0.07 0.06 0.06 0.06 0.06 0.05 0.05 0.05 0.05 0.05 0.05 0.05 0.05 0.05 0.05 0.05 0.05 0.06 0.06 0.05 0.05 0.05 0.05 0.05
0.07 0.06 0.06 0.06 0.06 0.05 0.05 0.05 0.06 0.07 0.07 0.07 0.08 0.08 0.08 0.08 0.08 0.08 0.08 0.08 0.08 0.08 0.08 0.08 0.08 0.08 0.08 0.08 0.08 0.08 0.08 0.08 0.07 0.07 0.07 0.07 0.07 0.07 0.07 0.06 0.06 0.06 0.07 0.07 0.06 0.06 0.05 0.06 0.06 0.06 0.05 0.06 0.05 0.06 0.06 0.06 0.06 0.06 0.06 0.06 0.06 0.06 0.06
0.07 0.06 0.06 0.06 0.06 0.05 0.05 0.05 0.06 0.06 0.07 0.07 0.08 0.08 0.08 0.08 0.08 0.08 0.08 0.08 0.08 0.08 0.08 0.08 0.08 0.08 0.08 0.08 0.08 0.07 0.07 0.07 0.07 0.07 0.07 0.06 0.06 0.06 0.06 0.06 0.06 0.06 0.06 0.06 0.06 0.06 0.06 0.06 0.07 0.06 0.06 0.06 0.07 0.06 0.06 0.06 0.06 0.06 0.06 0.07 0.07 0.07 0.07
0.06 0.06 0.06 0.06 0.06 0.06 0.05 0.06 0.06 0.07 0.07 0.08 0.08 0.08 0.08 0.08 0.08 0.08 0.08 0.08 0.08 0.09 0.08 0.08 0.08 0.08 0.08 0.07 0.07 0.07 0.07 0.07 0.07 0.07 0.06 0.06 0.06 0.06 0.06 0.06 0.06 0.06 0.06 0.06 0.06 0.06 0.06 0.07 0.07 0.07 0.07 0.07 0.07 0.07 0.07 0.07 0.07 0.07 0.08 0.08 0.08 0.08 0.08
0.07 0.06 0.06 0.06 0.06 0.06 0.05 0.06 0.06 0.07 0.07 0.08 0.08 0.08 0.08 0.08 0.08 0.08 0.08 0.08 0.08 0.08 0.08 0.08 0.08 0.08 0.08 0.07 0.07 0.07 0.08 0.08 0.07 0.07 0.06 0.06 0.06 0.06 0.06 0.06 0.06 0.07 0.07 0.07 0.07 0.07 0.07 0.07 0.07 0.08 0.08 0.08 0.08 0.08 0.09 0.09 0.09 0.09 0.08 0.08 0.07 0.06 0.07
0.07 0.06 0.06 0.06 0.06 0.06 0.06 0.06 0.06 0.06 0.07 0.07 0.08 0.08 0.08 0.07 0.07 0.08 0.08 0.08 0.08 0.08 0.08 0.08 0.08 0.08 0.07 0.07 0.07 0.07 0.08 0.07 0.07 0.07 0.07 0.06 0.06 0.06 0.06 0.06 0.07 0.08 0.07 0.07 0.08 0.08 0.08 0.09 0.09 0.09 0.09 0.09 0.10 0.10 0.10 0.09 0.08 0.07 0.08 0.07 0.06 0.06 0.06
0.07 0.07 0.06 0.06 0.06 0.06 0.06 0.05 0.06 0.06 0.07 0.07 0.08 0.08 0.07 0.08 0.07 0.08 0.08 0.08 0.08 0.08 0.08 0.08 0.08 0.08 0.08 0.07 0.07 0.08 0.08 0.07 0.07 0.07 0.07 0.07 0.06 0.06 0.06 0.07 0.07 0.07 0.08 0.08 0.08 0.08 0.08 0.08 0.08 0.09 0.08 0.08 0.08 0.08 0.08 0.08 0.07 0.07 0.07 0.06 0.06 0.06 0.06
0.07 0.06 0.06 0.06 0.06 0.06 0.06 0.06 0.06 0.06 0.07 0.07 0.07 0.07 0.07 0.07 0.07 0.08 0.08 0.08 0.08 0.08 0.08 0.08 0.08 0.08 0.08 0.08 0.08 0.08 0.08 0.08 0.08 0.08 0.07 0.07 0.06 0.06 0.06 0.06 0.07 0.07 0.07 0.07 0.07 0.07 0.07 0.06 0.07 0.07 0.06 0.06 0.07 0.07 0.07 0.07 0.07 0.07 0.06 0.06 0.06 0.06 0.06
0.07 0.06 0.06 0.06 0.06 0.06 0.06 0.06 0.06 0.06 0.06 0.07 0.07 0.07 0.08 0.08 0.08 0.08 0.08 0.08 0.08 0.07 0.07 0.07 0.07 0.08 0.08 0.08 0.08 0.08 0.08 0.08 0.08 0.08 0.07 0.07 0.06 0.06 0.06 0.07 0.07 0.07 0.07 0.07 0.06 0.06 0.06 0.06 0.06 0.06 0.06 0.06 0.06 0.06 0.06 0.06 0.06 0.06 0.06 0.06 0.06 0.06 0.06
0.07 0.06 0.06 0.06 0.06 0.06 0.06 0.06 0.06 0.06 0.06 0.07 0.07 0.07 0.08 0.08 0.08 0.08 0.08 0.08 0.07 0.07 0.07 0.07 0.07 0.07 0.08 0.08 0.08 0.08 0.08 0.08 0.08 0.08 0.07 0.07 0.07 0.07 0.07 0.08 0.07 0.07 0.07 0.06 0.06 0.06 0.05 0.05 0.05 0.05 0.05 0.05 0.05 0.05 0.05 0.06 0.06 0.06 0.06 0.06 0.06 0.06 0.06
0.07 0.06 0.06 0.06 0.06 0.06 0.06 0.06 0.06 0.05 0.06 0.06 0.07 0.07 0.08 0.08 0.08 0.08 0.08 0.08 0.08 0.08 0.07 0.07 0.08 0.08 0.08 0.08 0.08 0.07 0.07 0.07 0.08 0.08 0.07 0.07 0.07 0.07 0.08 0.07 0.07 0.06 0.06 0.06 0.05 0.05 0.05 0.05 0.05 0.05 0.05 0.05 0.05 0.05 0.05 0.06 0.06 0.06 0.06 0.07 0.07 0.07 0.06
0.06 0.06 0.06 0.06 0.06 0.06 0.06 0.05 0.05 0.05 0.05 0.06 0.06 0.07 0.08 0.08 0.08 0.08 0.08 0.08 0.08 0.08 0.08 0.08 0.08 0.08 0.08 0.07 0.07 0.07 0.07 0.08 0.08 0.08 0.08 0.07 0.07 0.07 0.07 0.06 0.06 0.06 0.05 0.05 0.05 0.05 0.05 0.05 0.05 0.05 0.05 0.05 0.05 0.05 0.06 0.06 0.06 0.06 0.07 0.07 0.07 0.07 0.08
0.06 0.06 0.06 0.05 0.05 0.05 0.05 0.05 0.05 0.05 0.05 0.05 0.06 0.07 0.07 0.08 0.08 0.08 0.09 0.09 0.08 0.08 0.08 0.08 0.07 0.07 0.07 0.07 0.07 0.07 0.08 0.08 0.08 0.08 0.08 0.07 0.06 0.06 0.06 0.06 0.05 0.05 0.05 0.05 0.05 0.05 0.05 0.05 0.05 0.05 0.05 0.05 0.06 0.06 0.06 0.06 0.06 0.06 0.07 0.07 0.07 0.07 0.08
0.06 0.06 0.06 0.05 0.05 0.05 0.05 0.05 0.05 0.05 0.05 0.06 0.06 0.06 0.07 0.07 0.07 0.08 0.08 0.08 0.08 0.08 0.07 0.07 0.07 0.08 0.08 0.08 0.08 0.08 0.08 0.07 0.07 0.07 0.07 0.06 0.06 0.05 0.05 0.05 0.05 0.05 0.05 0.05 0.05 0.05 0.05 0.05 0.05 0.05 0.05 0.06 0.06 0.06 0.06 0.06 0.06 0.07 0.07 0.07 0.07 0.07 0.07
0.06 0.06 0.06 0.05 0.05 0.05 0.05 0.05 0.05 0.05 0.05 0.06 0.06 0.06 0.06 0.07 0.07 0.08 0.08 0.08 0.08 0.08 0.08 0.08 0.08 0.07 0.07 0.07 0.07 0.07 0.06 0.06 0.06 0.06 0.06 0.06 0.05 0.05 0.05 0.05 0.05 0.05 0.05 0.05 0.05 0.05 0.05 0.05 0.05 0.05 0.06 0.06 0.06 0.06 0.06 0.06 0.06 0.06 0.07 0.07 0.07 0.07 0.07
0.06 0.06 0.05 0.05 0.05 0.05 0.05 0.05 0.05 0.05 0.05 0.06 0.06 0.06 0.06 0.06 0.07 0.07 0.08 0.08 0.08 0.08 0.07 0.07 0.07 0.07 0.07 0.07 0.07 0.07 0.07 0.06 0.06 0.06 0.06 0.06 0.05 0.05 0.04 0.05 0.05 0.05 0.05 0.05 0.05 0.05 0.05 0.05 0.06 0.06 0.06 0.06 0.06 0.06 0.06 0.06 0.06 0.06 0.06 0.07 0.07 0.07 0.07
0.06 0.06 0.06 0.05 0.05 0.05 0.05 0.05 0.05 0.05 0.06 0.06 0.06 0.06 0.06 0.06 0.07 0.07 0.08 0.08 0.08 0.08 0.08 0.07 0.07 0.07 0.07 0.07 0.06 0.06 0.06 0.06 0.06 0.06 0.06 0.06 0.05 0.05 0.04 0.05 0.05 0.05 0.05 0.05 0.05 0.05 0.06 0.05 0.05 0.05 0.06 0.06 0.06 0.06 0.06 0.06 0.06 0.06 0.06 0.07 0.07 0.06 0.06
0.06 0.06 0.06 0.06 0.05 0.05 0.05 0.05 0.05 0.06 0.06 0.06 0.06 0.06 0.06 0.07 0.07 0.07 0.08 0.08 0.08 0.08 0.07 0.07 0.07 0.06 0.06 0.06 0.06 0.06 0.06 0.06 0.06 0.06 0.06 0.06 0.05 0.05 0.04 0.04 0.04 0.05 0.05 0.05 0.05 0.05 0.05 0.05 0.05 0.05 0.06 0.06 0.06 0.06 0.06 0.06 0.06 0.06 0.06 0.06 0.06 0.06 0.06
0.07 0.07 0.06 0.06 0.06 0.06 0.05 0.05 0.06 0.07 0.07 0.07 0.07 0.07 0.07 0.07 0.07 0.08 0.07 0.07 0.07 0.07 0.07 0.06 0.06 0.06 0.06 0.06 0.06 0.06 0.06 0.06 0.06 0.05 0.05 0.05 0.05 0.05 0.04 0.04 0.04 0.05 0.05 0.05 0.05 0.05 0.05 0.05 0.05 0.05 0.06 0.06 0.06 0.06 0.06 0.06 0.06 0.06 0.06 0.06 0.06 0.06 0.06
0.08 0.08 0.08 0.07 0.07 0.07 0.07 0.07 0.06 0.06 0.07 0.07 0.07 0.07 0.07 0.07 0.07 0.07 0.07 0.07 0.07 0.06 0.06 0.06 0.06 0.06 0.06 0.06 0.06 0.06 0.06 0.06 0.05 0.05 0.05 0.05 0.05 0.05 0.04 0.04 0.04 0.04 0.05 0.05 0.05 0.05 0.05 0.05 0.05 0.05 0.06 0.06 0.06 0.06 0.06 0.06 0.06 0.06 0.06 0.06 0.06 0.06 0.06
0.08 0.08 0.08 0.08 0.07 0.07 0.06 0.07 0.06 0.06 0.07 0.07 0.07 0.07 0.07 0.07 0.07 0.07 0.07 0.06 0.06 0.06 0.06 0.06 0.06 0.06 0.06 0.06 0.06 0.06 0.06 0.05 0.05 0.05 0.05 0.05 0.05 0.05 0.05 0.04 0.04 0.04 0.05 0.05 0.05 0.05 0.05 0.05 0.05 0.06 0.06 0.06 0.06 0.06 0.06 0.06 0.06 0.06 0.06 0.06 0.06 0.06 0.07
0.07 0.07 0.07 0.07 0.07 0.07 0.07 0.07 0.07 0.07 0.07 0.07 0.07 0.07 0.07 0.07 0.07 0.07 0.07 0.06 0.06 0.06 0.06 0.06 0.06 0.06 0.06 0.06 0.06 0.06 0.05 0.05 0.05 0.05 0.05 0.05 0.05 0.05 0.05 0.04 0.04 0.04 0.05 0.05 0.05 0.05 0.05 0.05 0.06 0.06 0.06 0.06 0.06 0.06 0.05 0.06 0.06 0.06 0.06 0.06 0.06 0.06 0.07
0.06 0.06 0.06 0.07 0.07 0.07 0.07 0.07 0.06 0.06 0.06 0.06 0.07 0.07 0.07 0.06 0.06 0.07 0.07 0.06 0.06 0.05 0.05 0.05 0.05 0.06 0.06 0.06 0.06 0.06 0.05 0.05 0.05 0.05 0.05 0.05 0.05 0.05 0.05 0.04 0.04 0.04 0.04 0.05 0.05 0.05 0.05 0.06 0.06 0.06 0.05 0.05 0.05 0.06 0.05 0.05 0.06 0.06 0.06 0.06 0.06 0.06 0.07
0.05 0.06 0.06 0.06 0.06 0.06 0.06 0.06 0.06 0.06 0.06 0.06 0.06 0.06 0.06 0.06 0.06 0.05 0.05 0.05 0.05 0.05 0.05 0.05 0.05 0.05 0.06 0.06 0.06 0.05 0.05 0.05 0.05 0.05 0.05 0.05 0.05 0.05 0.05 0.05 0.04 0.04 0.04 0.05 0.05 0.05 0.05 0.06 0.06 0.06 0.06 0.05 0.05 0.05 0.05 0.05 0.05 0.06 0.06 0.06 0.06 0.06 0.06
0.05 0.05 0.06 0.06 0.06 0.06 0.06 0.06 0.06 0.06 0.06 0.06 0.07 0.07 0.07 0.05 0.05 0.05 0.05 0.05 0.05 0.05 0.05 0.05 0.05 0.05 0.05 0.06 0.06 0.06 0.05 0.05 0.05 0.05 0.05 0.05 0.05 0.05 0.05 0.05 0.04 0.04 0.04 0.05 0.05 0.05 0.05 0.06 0.06 0.06 0.05 0.05 0.05 0.05 0.05 0.05 0.05 0.06 0.06 0.06 0.06 0.06 0.06
Wind_Speed
53 53 52 50 49 48 47 45 44 42 41 40 40 39 39 39 39 39 39 39 39 39 39 39 39 40 40 40 41 42 42 43 44 45 46 46 47 48 49 51 52 55 57 56 55 57 58 59 60 61 61 61 62 63 64 65 66 67 68 69 70 71 73
53 52 51 50 49 47 46 44 43 41 40 39 39 38 38 38 38 38 38 38 37 37 37 38 38 39 39 40 40 41 41 42 43 44 45 45 46 48 48 50 52 53 55 56 54 54 56 57 58 59 60 60 61 62 63 64 65 66 66 67 69 70 72
52 51 50 49 48 46 45 43 41 40 39 38 38 37 37 37 37 37 37 37 37 36 36 37 37 37 38 38 39 40 40 41 42 43 44 46 46 48 49 49 51 53 54 55 55 53 54 56 56 57 57 58 59 60 61 62 63 65 66 66 68 69 70
51 50 49 48 47 46 44 42 40 39 38 37 37 37 36 36 36 36 36 36 36 36 36 36 36 36 37 37 38 39 40 41 42 43 44 46 46 47 49 49 50 52 53 54 55 53 53 54 54 55 55 56 57 57 58 60 61 62 63 65 66 67 69
51 50 49 47 46 45 43 41 39 38 38 37 36 36 36 36 35 35 35 35 35 35 35 35 36 36 37 37 39 40 41 42 43 44 45 46 47 48 49 50 50 52 52 53 54 53 53 53 54 53 53 53 54 55 56 57 57 58 60 62 63 65 66
50 49 48 47 46 44 42 40 39 38 37 36 36 35 35 35 34 34 34 34 34 34 34 35 35 36 37 38 39 40 41 42 43 44 45 47 48 48 49 50 51 51 52 53 54 53 53 53 52 52 52 51 51 52 53 53 54 55 56 58 59 61 62
50 49 48 46 45 44 42 40 38 37 37 36 35 35 34 34 34 33 33 33 33 34 34 35 36 37 38 39 40 41 42 43 44 45 46 47 48 49 50 50 51 51 52 52 53 53 52 52 51 51 50 49 49 50 50 51 52 52 53 54 56 57 59
49 48 47 46 45 43 41 39 38 37 36 36 35 35 35 34 33 33 33 33 33 34 34 35 36 37 38 39 40 41 41 42 43 44 45 46 47 49 50 50 50 51 51 51 52 52 51 51 51 50 49 48 48 48 48 48 49 51 51 51 53 55 56
49 48 47 46 45 43 41 39 38 37 37 36 36 35 35 34 33 33 33 33 34 34 35 36 37 38 39 39 40 41 42 43 43 44 45 46 47 48 49 49 49 50 50 50 51 50 50 50 50 49 48 47 47 47 48 48 48 50 50 51 52 53 53
49 48 46 46 44 42 40 39 38 37 37 37 36 35 34 34 33 33 33 34 34 35 35 36 37 38 39 40 41 42 42 43 44 45 45 46 46 47 48 48 49 49 49 49 49 49 48 48 48 48 47 47 47 47 48 48 48 49 49 49 50 50 50
49 47 46 46 44 42 40 38 38 38 38 37 37 36 35 34 34 33 34 34 35 35 35 36 37 37 38 39 40 41 42 43 44 45 46 47 47 48 48 48 48 48 47 47 47 47 46 46 47 47 46 47 47 47 47 48 48 48 48 48 48 48 48
48 47 46 45 44 42 40 38 38 38 38 37 37 36 35 34 34 33 34 34 34 35 35 36 37 37 38 39 40 41 41 42 44 45 46 47 47 47 47 47 47 46 46 45 45 45 44 44 45 45 45 45 45 45 46 46 46 46 47 47 47 47 47
48 47 46 45 43 42 39 38 38 38 38 37 37 37 36 35 34 34 34 34 34 35 35 36 37 37 38 39 40 40 41 41 43 44 45 45 45 45 45 45 45 45 44 44 43 43 43 43 43 43 43 42 43 44 44 44 45 45 45 46 46 47 48
48 47 45 44 43 41 39 38 38 38 38 37 37 37 36 35 34 34 34 34 34 35 35 36 37 38 38 39 39 39 40 41 41 42 43 43 43 43 43 43 42 42 43 42 42 42 43 42 42 42 42 41 41 42 42 43 43 44 44 46 46 47 48
47 46 45 44 42 41 39 38 37 38 37 37 36 36 36 35 34 34 34 34 35 35 36 36 37 37 38 38 38 39 39 40 41 41 42 42 42 41 40 39 39 40 40 40 41 41 41 40 40 40 40 40 40 40 41 42 44 44 45 46 47 47 47
47 46 45 43 42 40 39 37 37 37 37 36 36 36 35 34 34 34 34 34 35 35 35 36 36 37 37 37 38 38 39 40 40 41 41 41 40 39 38 37 38 39 40 40 39 40 40 40 40 40 39 39 39 39 40 41 43 43 44 44 44 44 45
47 45 44 43 41 39 38 37 37 37 36 36 36 35 34 34 34 33 34 34 34 34 35 35 36 36 37 37 37 37 38 39 40 41 40 40 39 37 36 36 37 38 38 39 39 39 39 38 38 38 38 38 38 38 38 38 39 39 40 41 41 41 42
46 45 43 42 40 39 38 36 36 36 36 35 35 35 34 33 33 33 33 33 33 34 34 35 36 36 36 36 36 37 38 39 39 39 39 38 37 36 36 35 35 35 36 36 37 37 37 37 37 37 36 37 37 38 38 38 38 39 39 40 40 40 41
46 44 43 41 39 38 37 36 35 35 35 35 35 34 33 33 33 33 33 33 33 33 34 34 35 36 36 36 36 37 38 38 38 38 37 36 36 35 35 34 33 33 33 32 33 34 34 35 36 36 36 36 37 37 38 38 39 39 39 40 41 41 40
45 44 42 40 38 37 36 35 34 34 35 34 34 33 33 32 32 32 32 32 32 33 33 33 34 34 35 36 36 37 37 37 38 38 37 36 35 34 33 32 32 31 31 31 31 32 32 33 33 34 35 35 36 36 37 38 38 39 40 40 41 41 41
44 43 41 39 37 36 35 35 34 33 34 34 33 33 32 32 32 32 32 32 32 33 33 33 33 33 34 35 36 36 36 37 38 37 36 34 33 32 31 30 30 30 30 31 31 31 31 32 32 32 33 33 34 35 36 37 38 38 39 40 40 40 40
43 41 40 38 36 35 34 34 33 32 32 32 32 32 31 31 32 32 32 33 33 33 33 33 33 33 33 34 35 35 35 36 37 36 35 33 32 32 31 30 30 30 31 31 30 30 30 30 30 31 31 31 32 33 34 35 36 37 38 39 40 40 40
42 40 38 37 35 34 33 33 32 31 31 31 31 31 31 32 33 33 33 33 33 32 32 32 32 33 34 34 35 35 35 35 35 34 34 33 32 32 31 31 31 31 31 31 30 30 29 29 29 29 30 30 30 31 31 33 34 35 37 38 39 40 40
40 38 37 35 34 33 33 32 31 30 30 30 31 31 32 32 33 34 33 33 33 32 32 32 33 33 34 34 34 34 34 34 33 34 34 34 33 33 32 32 31 31 31 31 30 29 29 29 28 28 28 28 29 29 31 32 34 35 36 37 38 39 40
39 37 36 34 33 33 32 31 30 29 29 30 31 32 32 32 33 33 33 33 32 32 33 33 34 34 34 34 34 34 33 33 33 34 34 34 33 32 31 31 31 31 31 30 29 29 28 28 28 28 28 28 29 30 31 32 33 35 35 36 37 38 38
38 36 35 33 32 32 31 30 30 29 29 30 30 31 31 32 32 32 32 32 33 33 34 34 34 34 33 33 33 33 32 32 33 33 34 33 32 31 31 31 31 30 30 30 29 29 28 28 28 28 28 29 29 30 31 32 33 33 33 33 33 34 34
36 35 33 32 31 31 30 30 30 30 29 29 29 29 30 30 30 31 31 32 32 33 32 32 32 32 32 32 32 32 32 32 32 33 33 33 33 32 31 31 30 30 30 29 29 29 28 28 28 28 28 29 29 30 30 30 31 30 30 29 28 28 29
35 34 33 32 31 30 30 30 30 29 29 28 28 28 28 29 29 30 31 31 31 30 30 29 30 30 30 31 31 31 31 32 32 32 32 33 33 32 31 30 30 29 29 28 28 28 27 27 27 27 27 28 28 28 29 28 27 26 26 25 24 25 26
35 33 32 31 31 31 30 30 29 28 28 28 28 28 29 29 30 30 30 29 29 28 27 28 28 29 30 30 30 31 31 32 32 32 32 32 32 31 30 29 28 28 28 27 27 27 26 26 26 26 27 27 27 27 27 26 24 23 23 22 22 23 23
35 33 32 31 31 30 29 29 29 28 28 29 29 29 29 30 30 30 28 27 26 26 27 28 29 29 30 30 31 31 31 32 32 32 32 32 31 30 28 28 27 27 27 27 26 26 26 25 25 26 25 25 26 26 25 23 22 21 21 21 20 21 21
34 33 33 32 30 29 29 29 30 29 29 29 29 29 29 29 29 29 27 26 27 27 28 29 29 30 31 31 31 31 31 31 31 31 31 30 30 29 28 27 27 27 26 26 26 25 25 25 25 25 24 24 25 25 23 21 21 20 20 19 19 19 20
34 32 32 31 30 30 29 29 29 28 28 28 28 29 28 28 29 29 27 27 27 28 29 30 30 31 31 31 31 31 31 31 30 30 30 29 29 29 28 27 26 26 26 26 25 25 24 24 24 23 23 24 24 23 22 20 20 19 19 18 18 18 18
33 32 31 30 30 30 29 29 28 28 28 28 28 28 28 29 29 28 27 27 28 29 30 31 31 31 31 32 32 31 31 30 30 30 29 29 29 29 28 27 26 26 26 25 25 24 24 24 23 23 23 23 22 21 20 19 19 18 18 18 18 17 17
32 32 31 30 30 30 29 29 28 28 28 28 28 28 28 28 28 27 28 29 29 30 31 31 31 31 31 31 31 31 30 30 29 29 29 29 29 28 28 27 26 25 25 25 24 24 23 23 22 22 22 22 21 20 19 18 18 18 17 17 17 17 18
32 31 31 30 30 29 29 28 28 27 28 28 28 28 28 27 27 28 29 30 30 30 31 31 31 31 31 31 31 30 30 29 29 29 29 29 28 28 28 27 26 25 25 24 23 23 23 22 21 21 21 21 21 19 19 18 18 18 17 17 17 18 18
32 31 31 31 30 29 28 28 27 27 28 27 28 28 27 27 28 29 30 31 31 31 31 31 31 31 31 30 30 30 29 29 29 29 29 28 28 28 28 27 26 25 24 24 23 22 22 21 21 21 21 20 20 19 19 18 18 18 18 17 17 18 18
Wind_Direction
310 310 309 308 307 305 303 301 298 296 295 293 291 289 287 286 284 283 282 280 279 277 276 275 275 274 274 274 274 274 274 274 274 274 274 274 274 273 273 273 272 272 272 271 271 270 270 269 269 268 267 266 265 264 263 261 260 259 257 256 255 254 253
310 310 309 308 307 305 303 300 298 296 295 293 291 289 288 287 285 284 282 281 279 278 277 276 275 275 275 275 274 274 275 275 275 275 275 275 275 274 274 274 274 274 274 273 273 272 271 271 270 269 268 267 266 264 263 262 260 259 258 257 256 254 253
310 310 309 308 307 305 303 300 297 296 294 293 291 290 289 287 286 284 282 280 279 278 278 277 276 276 276 276 275 275 276 276 276 276 276 276 276 276 275 275 275 275 275 275 275 274 273 273 271 270 269 268 266 265 264 262 261 260 259 257 256 255 254
310 309 309 308 306 305 302 299 297 295 294 292 291 290 289 288 286 284 282 280 279 278 278 277 277 277 277 276 276 277 277 277 278 278 277 277 277 277 277 276 276 276 276 276 276 275 275 273 272 271 270 269 268 266 264 263 261 260 259 258 256 255 254
310 309 308 307 306 304 301 299 296 295 293 292 291 290 289 288 286 284 282 281 279 278 278 277 277 277 277 277 278 278 279 279 279 279 279 279 278 278 278 278 277 277 277 277 277 276 276 274 273 272 271 270 269 267 265 264 262 260 259 258 257 256 254
310 309 308 307 306 303 301 297 295 294 293 292 291 290 289 288 286 284 282 281 280 279 278 278 278 278 279 279 279 280 280 280 280 280 280 280 279 279 279 278 278 278 277 277 277 277 276 275 274 273 272 270 269 268 266 265 263 261 259 258 257 256 255
310 309 308 307 305 303 299 296 294 293 292 291 290 290 289 287 286 284 283 281 280 279 279 279 279 280 280 281 281 281 282 282 282 282 281 281 281 280 280 279 279 279 278 277 277 276 276 275 274 273 272 271 270 269 267 266 264 262 260 258 257 256 255
310 309 307 306 305 302 298 295 293 292 291 291 290 289 288 287 286 284 283 282 281 281 280 281 281 282 282 283 283 283 284 284 284 284 283 283 282 282 281 281 280 280 279 278 277 276 276 274 273 272 272 271 269 268 267 266 264 263 261 260 258 257 256
310 309 307 306 304 301 297 294 292 291 290 290 290 289 288 287 286 284 283 282 282 282 282 282 283 284 284 284 284 284 284 285 285 285 285 285 284 283 283 282 281 280 279 278 277 276 275 273 272 271 271 270 268 267 267 266 265 263 262 262 260 258 256
310 309 307 306 304 300 296 292 291 289 289 289 289 288 287 286 285 284 284 283 283 283 284 284 285 285 285 284 285 285 285 286 286 286 286 286 285 284 283 282 281 280 279 277 276 275 274 272 271 271 271 269 268 268 267 266 265 264 263 262 261 259 257
309 308 307 305 303 300 296 292 289 288 288 288 287 287 287 286 285 284 284 284 284 285 286 286 286 286 286 286 286 286 286 287 287 287 287 286 285 284 283 282 281 280 278 277 275 274 272 271 270 271 270 270 269 268 267 265 264 263 263 262 260 259 257
309 308 307 305 303 300 295 292 289 287 287 287 286 286 286 285 285 285 285 285 285 286 287 287 287 287 287 287 287 287 288 288 288 288 288 288 286 285 283 283 281 280 279 277 276 274 273 272 271 271 270 270 269 267 266 265 264 263 262 261 259 258 257
309 308 307 305 303 300 296 291 288 287 286 286 285 285 285 285 285 286 286 286 287 287 288 288 288 289 289 289 288 289 289 290 290 290 290 289 288 286 284 283 282 280 279 278 276 275 275 274 273 272 271 270 269 267 265 264 263 263 262 260 258 258 257
309 308 307 305 303 300 296 291 288 286 285 285 285 284 284 284 285 286 286 287 287 288 288 289 289 290 290 290 290 290 291 291 292 292 292 291 289 287 285 284 282 281 280 278 277 276 275 275 273 272 271 270 268 266 265 264 264 263 262 261 260 259 258
309 308 307 305 303 299 296 292 288 286 285 284 284 284 284 284 285 286 286 287 287 288 289 290 290 291 291 291 291 292 292 293 294 294 293 292 290 288 286 284 283 282 280 279 278 277 276 275 274 273 272 270 269 267 266 266 265 264 263 263 262 261 259
309 308 306 305 302 299 296 292 289 286 285 284 284 283 283 284 284 285 286 287 287 288 289 290 291 292 292 292 293 293 293 293 294 294 293 292 290 288 286 284 283 282 280 279 278 277 277 276 274 273 272 271 270 269 268 267 266 264 264 263 262 261 259
309 308 306 304 302 299 296 293 289 286 284 284 283 283 283 283 284 285 286 287 288 289 290 291 292 292 293 293 294 294 294 294 295 295 294 292 290 287 286 285 284 283 282 280 279 278 277 276 275 274 273 271 270 269 269 269 267 265 264 263 262 261 260
309 308 306 304 301 298 296 293 290 287 284 283 283 282 283 283 284 285 286 287 288 290 291 291 292 293 293 294 294 294 294 295 296 296 296 293 291 288 286 286 286 285 284 282 280 280 278 277 276 275 274 273 271 270 269 269 268 267 266 265 263 262 261
309 307 306 304 301 298 296 293 291 287 284 283 282 282 282 283 284 285 287 288 289 290 291 292 293 293 293 294 294 294 295 296 297 298 297 294 291 289 288 288 288 286 285 284 283 282 280 279 277 276 274 273 272 271 270 269 268 268 266 265 264 263 262
309 307 306 303 301 299 296 294 291 288 284 283 282 281 282 282 284 285 287 288 289 291 292 293 294 294 294 294 294 295 296 297 298 299 298 295 292 290 289 289 288 287 286 286 285 284 282 281 279 277 276 274 273 272 270 269 269 268 267 265 264 263 262
309 307 305 303 301 299 297 295 292 289 285 282 281 281 281 282 284 285 287 288 289 291 292 293 295 295 295 295 295 296 297 298 299 299 299 296 292 290 290 289 288 288 288 288 287 286 285 283 281 279 277 275 274 273 271 270 270 268 267 266 265 263 262
309 307 305 303 301 299 298 296 293 289 285 282 281 281 282 283 284 285 287 288 290 291 293 294 295 296 296 295 295 296 297 298 299 299 299 296 292 290 289 289 288 289 290 290 289 288 286 284 282 281 279 277 275 274 272 272 271 269 267 266 264 264 262
308 307 305 303 302 300 299 297 294 290 285 283 282 282 282 283 284 285 287 288 290 292 294 295 296 297 297 296 296 296 297 298 300 301 301 298 294 291 290 290 289 290 291 291 290 288 286 284 283 281 280 278 277 275 274 273 272 271 270 268 266 264 262
309 307 305 304 302 301 299 298 296 291 287 284 283 283 283 284 285 286 287 289 291 292 294 295 296 296 297 297 298 298 298 299 301 302 303 301 296 292 291 290 290 290 291 291 290 288 286 285 283 282 281 280 279 278 278 276 275 274 272 270 268 266 263
308 307 305 304 302 301 300 299 297 293 289 286 285 284 284 285 286 287 288 289 291 292 293 295 296 297 298 299 299 299 298 299 300 301 303 302 298 293 290 290 290 290 291 290 289 288 286 285 284 283 283 283 283 283 283 282 280 278 275 272 270 268 264
308 307 305 304 302 301 300 299 297 296 293 289 286 285 285 285 286 287 288 289 290 291 293 294 296 297 298 299 299 298 298 299 300 302 303 303 300 295 291 291 291 290 290 289 288 288 287 286 285 285 285 285 286 287 286 285 284 282 279 275 272 269 265
308 307 305 304 303 302 301 300 299 297 294 291 287 286 285 286 286 287 287 288 289 291 292 293 295 296 297 297 298 298 298 299 300 302 303 303 302 297 292 290 289 289 288 287 287 286 286 286 285 285 285 286 286 287 287 287 286 283 281 277 274 271 267
308 306 305 304 304 303 302 301 299 297 294 291 289 287 287 287 287 288 288 288 289 290 291 292 294 295 296 297 298 298 298 298 299 300 301 302 301 297 292 288 287 286 286 285 285 285 285 285 285 284 285 286 286 287 288 288 286 283 281 278 275 271 267
308 306 305 304 303 303 302 300 298 296 294 292 290 288 288 288 289 289 289 289 288 289 290 291 293 294 295 297 297 297 297 298 298 299 300 301 301 299 293 288 286 285 285 285 284 284 285 285 284 285 286 286 288 289 290 288 285 283 281 278 275 270 266
307 305 305 304 303 302 300 299 298 297 295 293 291 290 290 290 292 292 291 289 289 290 291 292 293 294 295 297 298 298 298 298 299 299 300 301 302 300 295 289 285 285 285 285 284 284 284 285 285 286 286 288 290 291 289 286 285 283 280 278 275 272 268
307 305 304 304 304 303 301 299 298 297 295 294 293 292 292 293 294 294 292 291 292 292 292 293 293 294 295 297 298 298 298 299 299 300 300 301 302 301 297 290 285 284 284 284 284 284 284 284 285 285 286 288 290 290 287 284 284 282 278 276 275 273 270
308 307 305 304 304 303 302 300 299 297 296 295 294 293 293 293 294 294 293 293 294 294 293 293 293 294 295 297 298 299 299 299 299 299 300 300 301 301 298 292 286 283 283 283 283 283 284 283 283 284 286 288 289 288 285 283 282 280 277 276 275 273 272
309 308 307 306 304 303 302 301 299 298 296 295 294 293 293 293 292 292 293 294 294 294 295 295 294 295 296 297 298 298 298 298 298 298 298 299 299 300 299 294 287 283 282 281 282 282 282 282 282 284 285 287 287 285 282 280 279 278 276 275 274 274 274
309 309 308 307 305 304 302 301 299 298 296 295 295 294 294 294 293 293 293 295 295 295 295 295 295 295 295 296 297 297 297 297 297 297 297 297 298 298 298 295 289 283 280 280 280 280 280 280 281 282 284 286 286 283 279 277 276 275 274 274 273 274 274
310 309 308 307 306 305 303 302 300 299 298 297 296 295 295 295 295 294 294 295 295 295 295 295 295 295 295 295 296 296 296 296 296 297 297 297 297 298 297 295 289 283 279 278 278 277 278 279 280 281 283 285 284 281 277 275 274 273 272 271 271 271 271
310 309 309 307 306 305 304 302 301 300 299 298 297 297 297 297 296 295 295 295 295 295 295 295 295 295 295 295 295 296 296 296 296 296 296 296 297 297 296 294 289 283 278 277 276 276 277 277 278 280 282 283 282 279 276 274 273 272 270 269 269 269 269